Location: Elende
(51.4317°N, 10.6316°E)
Time: 10:35:51
(UTC+00:00)

ERS-1 Rocket - Pass Details

Date: 18 September 2020
Orbit: 753 x 757 km, 98.5° (Epoch: 30 October)

Event Time Altitude Azimuth Distance (km) Brightness Sun altitude
Exits shadow 19:17:21 20° 70° (ENE) 1,714 4.4 -17.8°
Maximum altitude 19:18:11 21° 56° (NE) 1,678 4.5 -17.9°
Drops below altitude 10° 19:21:50 10° 10° (N) 2,297 5.7 -18.4°
Sets 19:24:39 0° 354° (N) 3,228 6.7 -18.8°
